When you browse on this site, cookies collect data to enhance your experience and personalize the content and advertising you see.
Visit our Privacy Policy to learn more. By continuing to use the site, you agree to this use of cookies and data.
  • In Hungary
  • List of Countries
  • For 7 days
  • Water Temperature
  • Weather Map
  • News
  • Weather Widgets
  • user-avatar
    Login

    Hourly Weather Keserib

    Today, 24 February, Monday

    Time Temperature Precipitation Wind Pressure Humidity
    00:00 -10°C° 0 mm 4 mps 571 mmHg 84%
    01:00 -10°C° 0 mm 4 mps 571 mmHg 84%
    02:00 -9°C° 0 mm 4 mps 571 mmHg 84%
    03:00 -10°C° 0 mm 4 mps 571 mmHg 85%
    04:00 -10°C° 0 mm 4 mps 570 mmHg 85%
    05:00 -10°C° 0 mm 4 mps 570 mmHg 85%
    06:00 -10°C° 0 mm 4 mps 570 mmHg 85%
    07:00 -10°C° 0 mm 5 mps 570 mmHg 84%
    08:00 -7°C° 0 mm 5 mps 571 mmHg 84%
    09:00 -6°C° 0 mm 5 mps 571 mmHg 83%
    10:00 -6°C° 0 mm 5 mps 571 mmHg 81%
    11:00 -5°C° 0 mm 5 mps 570 mmHg 79%
    12:00 -4°C° 0 mm 5 mps 570 mmHg 78%
    13:00 -4°C° 0 mm 5 mps 569 mmHg 78%
    14:00 -4°C° 0 mm 5 mps 568 mmHg 78%
    15:00 -5°C° 0 mm 5 mps 568 mmHg 78%
    16:00 -6°C° 0 mm 5 mps 566 mmHg 79%
    17:00 -8°C° 0 mm 6 mps 565 mmHg 80%
    18:00 -10°C° 0 mm 6 mps 564 mmHg 82%
    19:00 -10°C° 0 mm 6 mps 564 mmHg 81%
    20:00 -10°C° 0 mm 6 mps 564 mmHg 81%
    21:00 -10°C° 0 mm 6 mps 564 mmHg 81%
    22:00 -10°C° 0 mm 6 mps 563 mmHg 81%
    23:00 -10°C° 0 mm 6 mps 563 mmHg 82%

    Tomorrow, 25 February, Tuesday

    Time Temperature Precipitation Wind Pressure Humidity
    00:00 -10°C° 0 mm 6 mps 562 mmHg 82%
    01:00 -10°C° 0 mm 6 mps 562 mmHg 82%
    02:00 -10°C° 0 mm 6 mps 562 mmHg 82%
    03:00 -10°C° 0 mm 6 mps 561 mmHg 82%
    04:00 -10°C° 0 mm 6 mps 562 mmHg 82%
    05:00 -10°C° 0 mm 5 mps 562 mmHg 83%
    06:00 -11°C° 0 mm 5 mps 562 mmHg 83%
    07:00 -9°C° 0 mm 4 mps 563 mmHg 83%
    08:00 -8°C° 0 mm 4 mps 565 mmHg 82%
    09:00 -5°C° 0 mm 4 mps 566 mmHg 81%
    10:00 -5°C° 0 mm 4 mps 566 mmHg 81%
    11:00 -5°C° 0 mm 4 mps 566 mmHg 81%
    12:00 -4°C° 0 mm 3 mps 567 mmHg 80%
    13:00 -5°C° 0.3 mm 3 mps 566 mmHg 82%
    14:00 -6°C° 0.3 mm 3 mps 566 mmHg 85%
    15:00 -7°C° 0.3 mm 3 mps 566 mmHg 87%
    16:00 -8°C° 0.5 mm 3 mps 566 mmHg 89%
    17:00 -8°C° 0.5 mm 2 mps 566 mmHg 91%
    18:00 -9°C° 0.5 mm 2 mps 566 mmHg 94%
    19:00 -10°C° 0.5 mm 2 mps 566 mmHg 95%
    20:00 -10°C° 0.5 mm 1 mps 566 mmHg 96%
    21:00 -11°C° 0.5 mm 1 mps 566 mmHg 97%
    22:00 -11°C° 0.1 mm 1 mps 566 mmHg 96%
    23:00 -12°C° 0.1 mm 1 mps 566 mmHg 95%

    Day after tomorrow, 26 February, Wednesday

    Time Temperature Precipitation Wind Pressure Humidity
    00:00 -13°C° 0.1 mm 1 mps 565 mmHg 94%
    01:00 -15°C° 0 mm 2 mps 566 mmHg 86%
    02:00 -15°C° 0 mm 2 mps 566 mmHg 78%
    03:00 -16°C° 0 mm 2 mps 566 mmHg 70%
    04:00 -16°C° 0 mm 2 mps 566 mmHg 63%
    05:00 -14°C° 0 mm 1 mps 566 mmHg 56%
    06:00 -14°C° 0 mm 1 mps 567 mmHg 49%
    07:00 -11°C° 0 mm 1 mps 568 mmHg 51%
    08:00 -9°C° 0 mm 1 mps 570 mmHg 52%
    09:00 -7°C° 0 mm 1 mps 571 mmHg 54%
    10:00 -6°C° 0 mm 1 mps 572 mmHg 58%
    11:00 -6°C° 0 mm 2 mps 572 mmHg 61%
    12:00 -6°C° 0 mm 2 mps 572 mmHg 65%
    13:00 -5°C° 0 mm 2 mps 572 mmHg 68%
    14:00 -5°C° 0 mm 2 mps 572 mmHg 71%
    15:00 -6°C° 0 mm 3 mps 572 mmHg 74%
    16:00 -7°C° 0 mm 3 mps 571 mmHg 69%
    17:00 -9°C° 0 mm 3 mps 570 mmHg 64%
    18:00 -11°C° 0 mm 4 mps 570 mmHg 59%
    19:00 -11°C° 0 mm 4 mps 570 mmHg 54%
    20:00 -10°C° 0 mm 4 mps 570 mmHg 49%
    21:00 -10°C° 0 mm 4 mps 570 mmHg 44%
    22:00 -10°C° 0 mm 4 mps 570 mmHg 42%
    23:00 -9°C° 0 mm 4 mps 570 mmHg 39%

    27 February, Thursday

    Time Temperature Precipitation Wind Pressure Humidity
    00:00 -9°C° 0 mm 4 mps 570 mmHg 36%
    01:00 -8°C° 0 mm 4 mps 570 mmHg 36%
    02:00 -8°C° 0 mm 4 mps 570 mmHg 36%
    03:00 -7°C° 0 mm 4 mps 571 mmHg 36%
    04:00 -7°C° 0 mm 4 mps 571 mmHg 37%
    05:00 -5°C° 0 mm 4 mps 571 mmHg 37%
    06:00 -5°C° 0 mm 4 mps 571 mmHg 38%
    07:00 -3°C° 0 mm 4 mps 572 mmHg 44%
    08:00 -2°C° 0 mm 4 mps 572 mmHg 49%
    09:00 -1°C° 0 mm 4 mps 573 mmHg 55%
    10:00 0°C° 0 mm 4 mps 573 mmHg 61%
    11:00 +1°C° 0 mm 4 mps 573 mmHg 67%
    12:00 +3°C° 0 mm 4 mps 574 mmHg 73%
    13:00 +3°C° 0 mm 4 mps 573 mmHg 71%
    14:00 +3°C° 0 mm 4 mps 573 mmHg 68%
    15:00 +3°C° 0 mm 4 mps 573 mmHg 66%
    16:00 +1°C° 0 mm 4 mps 572 mmHg 58%
    17:00 -1°C° 0 mm 4 mps 571 mmHg 50%
    18:00 -2°C° 0 mm 5 mps 570 mmHg 42%
    19:00 -2°C° 0 mm 5 mps 571 mmHg 40%
    20:00 -2°C° 0 mm 5 mps 571 mmHg 38%
    21:00 -2°C° 0 mm 5 mps 571 mmHg 36%
    22:00 -2°C° 0 mm 5 mps 570 mmHg 37%
    23:00 -2°C° 0 mm 5 mps 570 mmHg 37%

    28 February, Friday

    Time Temperature Precipitation Wind Pressure Humidity
    00:00 -2°C° 0 mm 5 mps 570 mmHg 38%
    01:00 -2°C° 0 mm 5 mps 569 mmHg 37%
    02:00 -2°C° 0 mm 5 mps 568 mmHg 37%
    03:00 -4°C° 0 mm 5 mps 568 mmHg 37%
    04:00 -4°C° 0 mm 5 mps 567 mmHg 37%
    05:00 -4°C° 0 mm 6 mps 567 mmHg 37%
    06:00 -4°C° 0 mm 6 mps 566 mmHg 38%
    07:00 -3°C° 0 mm 6 mps 567 mmHg 40%
    08:00 -2°C° 0 mm 6 mps 567 mmHg 42%
    09:00 -1°C° 0 mm 6 mps 567 mmHg 44%
    10:00 +1°C° 0 mm 6 mps 567 mmHg 46%
    11:00 +2°C° 0 mm 5 mps 567 mmHg 48%
    12:00 +3°C° 0 mm 5 mps 567 mmHg 50%
    13:00 +2°C° 0 mm 5 mps 567 mmHg 50%
    14:00 +2°C° 0 mm 5 mps 567 mmHg 50%
    15:00 +2°C° 0 mm 5 mps 567 mmHg 50%
    16:00 0°C° 0 mm 5 mps 566 mmHg 51%
    17:00 -2°C° 0 mm 5 mps 566 mmHg 52%
    18:00 -5°C° 0 mm 5 mps 565 mmHg 52%
    19:00 -5°C° 0 mm 5 mps 566 mmHg 57%
    20:00 -5°C° 0 mm 5 mps 566 mmHg 61%
    21:00 -6°C° 0 mm 5 mps 566 mmHg 66%
    22:00 -5°C° 0 mm 4 mps 566 mmHg 69%
    23:00 -5°C° 0 mm 4 mps 567 mmHg 72%

    29 February, Saturday

    Time Temperature Precipitation Wind Pressure Humidity
    00:00 -5°C° 0 mm 4 mps 567 mmHg 75%
    01:00 -5°C° 0.2 mm 3 mps 567 mmHg 78%
    02:00 -5°C° 0.2 mm 3 mps 568 mmHg 82%
    03:00 -5°C° 0.2 mm 3 mps 568 mmHg 86%
    04:00 -5°C° 0.5 mm 3 mps 568 mmHg 88%
    05:00 -4°C° 0.5 mm 2 mps 569 mmHg 90%
    06:00 -4°C° 0.5 mm 2 mps 569 mmHg 93%
    07:00 -5°C° 1.5 mm 3 mps 570 mmHg 93%
    08:00 -5°C° 1.5 mm 3 mps 570 mmHg 93%
    09:00 -5°C° 1.5 mm 3 mps 570 mmHg 93%
    10:00 -5°C° 0.9 mm 4 mps 570 mmHg 91%
    11:00 -7°C° 0.9 mm 4 mps 570 mmHg 89%
    12:00 -7°C° 0.9 mm 4 mps 570 mmHg 87%
    13:00 -7°C° 0.3 mm 4 mps 569 mmHg 85%
    14:00 -7°C° 0.3 mm 4 mps 569 mmHg 83%
    15:00 -7°C° 0.3 mm 4 mps 569 mmHg 81%
    16:00 -8°C° 0 mm 4 mps 568 mmHg 83%
    17:00 -9°C° 0 mm 4 mps 568 mmHg 84%
    18:00 -11°C° 0 mm 4 mps 567 mmHg 86%
    19:00 -12°C° 0 mm 5 mps 567 mmHg 85%
    20:00 -12°C° 0 mm 5 mps 567 mmHg 83%
    21:00 -13°C° 0 mm 5 mps 567 mmHg 82%
    22:00 -13°C° 0.1 mm 5 mps 567 mmHg 82%
    23:00 -13°C° 0.1 mm 5 mps 568 mmHg 82%
    Show more